Cloud_Cover
0 0 0 0 0 0 0 4 0 4 14 100 5 37 99 75 2 0 3 1 10 0 0 0 0 28 1 5 4 0 0 3 1 76 33 100 21 100 65 0 0 0 0 92
1 0 0 0 0 0 0 0 0 0 2 100 100 90 5 5 5 0 1 1 3 0 0 0 0 0 0 4 5 1 5 2 4 25 5 5 5 4 0 8 9 8 20 33
0 0 4 0 0 0 0 0 0 0 2 100 97 8 0 0 0 0 0 0 0 0 0 0 0 0 2 5 5 5 3 36 5 0 2 1 1 0 0 0 5 6 4 100
0 0 0 0 0 0 0 0 0 0 6 74 84 15 0 1 0 0 0 0 0 0 0 0 0 0 5 43 5 5 13 11 0 0 0 0 0 0 4 0 7 7 59 82
0 0 0 0 0 0 0 0 2 28 5 5 3 1 0 5 0 0 0 0 0 0 0 0 0 5 43 5 5 0 3 0 0 0 0 0 0 0 0 0 0 5 15 84
0 0 0 0 0 0 0 0 0 88 5 3 0 3 1 27 0 0 3 0 0 0 0 5 5 54 10 5 0 1 3 1 0 0 0 0 0 0 0 5 18 2 5 25
0 0 4 0 0 0 0 6 9 20 0 0 2 26 59 2 0 1 3 1 0 0 4 32 35 22 39 5 0 0 0 0 0 0 0 0 0 0 1 4 77 4 40 16
0 0 8 0 0 0 0 0 0 0 2 1 4 1 26 29 2 0 2 0 2 5 5 34 97 100 7 0 0 0 0 0 0 0 0 0 0 27 37 5 13 16 10 2
94 3 0 2 4 0 0 2 0 2 5 8 29 26 95 94 5 3 5 100 36 5 77 100 99 7 0 0 0 0 0 0 0 0 0 0 7 19 33 0 0 85 1 86
58 98 2 25 4 1 4 2 0 0 2 31 68 99 100 15 5 6 5 58 15 92 100 93 4 5 1 0 0 0 0 0 0 0 0 18 100 37 59 34 51 4 61 57
59 83 58 94 71 0 0 44 0 0 1 7 91 100 48 94 37 62 44 99 100 100 98 88 96 8 4 0 0 0 0 0 0 0 2 100 100 48 84 67 99 100 88 98
70 100 82 70 100 2 0 5 1 0 0 12 99 100 88 94 83 99 100 100 100 100 100 75 5 43 1 0 0 0 0 0 0 0 45 100 100 39 12 51 97 82 96 88
70 99 100 100 95 29 15 4 10 2 7 91 43 100 7 70 66 98 100 100 100 100 100 46 98 2 0 0 0 0 0 0 0 5 64 100 99 22 21 98 100 20 44 99
100 94 100 100 66 80 83 82 14 9 5 82 100 56 5 71 100 100 100 23 99 100 94 36 22 0 0 0 0 0 0 0 0 2 34 100 78 15 48 100 92 4 7 8
100 8 92 100 100 100 100 100 85 80 68 10 86 20 85 88 100 100 100 97 100 100 100 99 2 0 0 0 0 0 0 0 0 0 25 100 100 80 96 100 16 0 12 70
73 70 74 100 100 100 100 100 100 100 34 21 42 4 95 100 100 100 100 82 100 100 100 31 0 0 0 0 0 0 0 0 0 0 34 97 31 24 94 75 22 4 84 100
95 100 100 100 100 98 100 100 99 100 33 36 65 1 95 100 86 87 100 100 100 100 98 13 4 0 0 0 0 0 0 0 0 0 63 27 0 0 5 35 91 100 100 100
100 100 100 100 100 100 100 100 100 100 99 38 28 81 46 17 100 100 100 99 100 100 100 2 5 0 0 0 0 0 0 0 0 4 31 8 3 2 2 58 100 100 76 95
98 100 100 100 100 100 100 97 100 100 15 4 1 5 81 100 100 97 100 100 100 100 99 5 5 0 0 4 0 0 0 0 0 0 15 4 18 41 92 100 93 97 32 48
83 100 100 100 100 100 100 86 28 18 28 4 0 4 90 100 100 100 100 100 100 100 99 5 5 3 1 5 0 0 0 0 0 0 20 19 48 77 54 42 63 12 68 83
54 100 100 100 100 100 100 15 6 2 87 24 0 6 75 9 42 99 100 100 100 100 22 5 5 5 5 5 0 0 0 0 0 0 5 11 13 18 12 2 5 14 54 73
100 98 100 100 100 100 100 100 23 81 74 15 13 31 84 76 100 100 100 100 100 98 5 6 5 7 5 17 1 0 0 0 0 0 0 13 2 30 34 5 5 5 9 78
100 100 100 100 100 100 100 100 82 100 100 13 0 83 100 100 100 100 100 100 100 12 13 24 5 27 5 37 2 0 0 0 0 0 0 0 0 3 0 1 5 5 7 56
100 100 100 100 100 100 100 100 57 96 64 12 1 100 100 100 100 100 100 98 100 8 5 5 45 63 15 5 5 0 0 0 0 0 0 0 0 0 0 0 0 5 5 8
100 100 100 100 100 100 98 100 100 98 63 47 12 100 100 100 100 100 91 29 100 6 5 45 100 94 64 5 5 0 0 0 0 0 0 0 0 0 1 0 0 0 0 4
100 100 100 100 93 100 100 100 78 32 67 4 1 87 100 100 100 100 10 45 75 7 27 93 100 100 32 9 5 3 0 0 0 0 0 0 0 0 0 0 0 63 4 0